Location: Rosenheim
(47.8408°N, 12.2113°E)
Time: 11:22:25
(UTC+01:00)

Amateur Radio Satellites - All Passes

Search period start: 19 November 2017 10:52
Search period end: 20 November 2017 10:52
Location: Rosenheim, 47.8408°N, 12.2113°E

Satellite Date Start Highest point End Downlink Frequencies (MHz)
Time Altitude Azimuth
DELFI C3 19 Nov 10:52:41 10:56:01 25° 294° (WNW) 10:59:19 145.870
Max Valier Satellite 19 Nov 10:55:40 10:58:51 28° 292° (WNW) 11:01:59 145.860
BUGSAT 1 19 Nov 10:56:41 10:59:00 15° 60° (ENE) 11:01:17 437.445
EO-88 19 Nov 10:59:46 11:03:06 34° 290° (WNW) 11:06:26 145.990 - 145.960
ESTCUBE 1 19 Nov 11:00:12 11:04:00 26° 94° (E) 11:07:46 437.505/2401.250
PCSat 19 Nov 11:01:40 11:06:00 25° 251° (WSW) 11:10:18 145.827
BEESAT 2 19 Nov 11:06:26 11:09:20 19° 33° (NNE) 11:12:13 435.950
AIST 2D 19 Nov 11:25:54 11:28:33 20° 267° (W) 11:31:13 435.315
DUCHIFAT 1 19 Nov 11:27:21 11:31:35 84° 256° (WSW) 11:35:49 145.980
EO-79 19 Nov 11:31:37 11:35:50 60° 259° (W) 11:40:02 145.935-145.965
LO-87 19 Nov 11:31:56 11:35:30 77° 103° (ESE) 11:39:02 145.935 - 145.965
NANOSAT C BR1 19 Nov 11:36:34 11:40:45 59° 259° (WSW) 11:44:57 145.865
BEESAT 3 19 Nov 11:38:03 11:42:02 73° 51° (NE) 11:45:56 437.485
POLYITAN 1 19 Nov 11:46:28 11:50:30 42° 262° (W) 11:54:33 437.675
AO-7 19 Nov 11:49:56 11:54:13 15° 36° (NE) 11:58:32 .
Oscar 19 19 Nov 11:52:14 11:56:44 32° 64° (ENE) 12:01:16 437.125/150
Gurwin Techsat 1B 19 Nov 11:58:03 12:02:31 28° 62° (ENE) 12:07:00 435.225
FALCONSAT 3 19 Nov 12:02:54 12:03:56 11° 171° (S) 12:04:58 435.103
QB50P2 19 Nov 12:10:26 12:13:49 23° 267° (W) 12:17:14 145.880/145.840
AO-85 19 Nov 12:14:02 12:18:08 33° 41° (NE) 12:22:32 145.980
M-CUBED/EXP-1 PRIME 19 Nov 12:27:12 12:29:41 18° 55° (NE) 12:32:18 437.505
BUGSAT 1 19 Nov 12:29:38 12:33:50 70° 257° (WSW) 12:38:01 437.445
ESTCUBE 1 19 Nov 12:36:42 12:40:54 39° 292° (WNW) 12:45:06 437.505/2401.250
BEESAT 2 19 Nov 12:43:31 12:47:36 83° 234° (SW) 12:51:35 435.950
SPROUT 19 Nov 12:47:29 12:51:46 80° 103° (ESE) 12:56:00 437.525
VELOX 1 19 Nov 13:07:30 13:12:01 81° 105° (ESE) 13:16:27 145.980
O/OREOS (USA 219) 19 Nov 13:08:30 13:11:53 21° 102° (ESE) 13:15:17 437.305
UKube-1 19 Nov 13:13:04 13:15:37 15° 90° (E) 13:18:08 .
BEESAT 3 19 Nov 13:17:03 13:19:00 13° 249° (WSW) 13:20:57 437.485
Oscar 19 19 Nov 13:31:13 13:35:59 39° 263° (W) 13:40:46 437.125/150
Gurwin Techsat 1B 19 Nov 13:37:05 13:42:13 48° 261° (W) 13:47:24 435.225
AO-7 19 Nov 13:37:15 13:45:05 49° 59° (ENE) 13:52:57 .
ITAMSAT 1 19 Nov 13:40:05 13:44:06 23° 59° (ENE) 13:48:08 435.822/435.867
FALCONSAT 3 19 Nov 13:40:52 13:42:08 11° 187° (S) 13:43:22 435.103
AO-85 19 Nov 13:54:14 13:58:42 47° 239° (WSW) 14:03:29 145.980
M-CUBED/EXP-1 PRIME 19 Nov 14:00:19 14:03:44 46° 255° (WSW) 14:07:26 437.505
DX 1 19 Nov 14:00:34 14:04:58 69° 103° (ESE) 14:09:19 434.975-435.025
50 SAT 19 Nov 14:00:54 14:04:10 87° 287° (WNW) 14:07:23 437.505
SPROUT 19 Nov 14:25:02 14:27:02 13° 302° (WNW) 14:29:03 437.525
YUBILEINY 19 Nov 14:29:01 14:33:39 15° 48° (NE) 14:38:17 435.215
VELOX 1 19 Nov 14:45:28 14:47:50 14° 302° (WNW) 14:50:11 145.980
O/OREOS (USA 219) 19 Nov 14:46:26 14:50:56 52° 301° (WNW) 14:55:27 437.305
UKube-1 19 Nov 14:47:44 14:52:03 62° 288° (WNW) 14:56:18 .
BEESAT 19 Nov 14:49:26 14:53:13 23° 93° (E) 14:56:57 436.000
ITUPSAT 1 19 Nov 14:57:22 15:01:23 26° 94° (E) 15:05:22 437.325
DOVE 4 19 Nov 15:14:24 15:18:35 26° 63° (ENE) 15:22:54 437.250
ITAMSAT 1 19 Nov 15:17:59 15:23:09 61° 258° (WSW) 15:28:22 435.822/435.867
AO-7 19 Nov 15:30:02 15:37:54 47° 260° (W) 15:45:51 .
MOZHAYETS 4 19 Nov 15:31:21 15:35:56 74° 102° (ESE) 15:40:30
CUBESAT XI-V 19 Nov 15:37:15 15:40:58 23° 92° (E) 15:44:40 437.345
DX 1 19 Nov 15:37:59 15:40:37 16° 301° (WNW) 15:43:16 434.975-435.025
LilacSat-2 19 Nov 16:04:01 16:05:55 14° 61° (ENE) 16:07:50 437.200
HO-68 19 Nov 16:04:53 16:09:07 17° 46° (NE) 16:13:20 435.675
XW-2C 19 Nov 16:05:03 16:06:48 13° 61° (ENE) 16:08:33 145.795 - 145.815
NO-84 19 Nov 16:10:21 16:13:58 44° 138° (SE) 16:17:51 435.350 FM
XW-2F 19 Nov 16:17:14 16:19:33 16° 63° (ENE) 16:21:53 145.980 - 146.000
YUBILEINY 19 Nov 16:24:06 16:32:51 58° 74° (ENE) 16:41:30 435.215
BEESAT 19 Nov 16:26:39 16:31:13 47° 291° (WNW) 16:35:45 436.000
O/OREOS (USA 219) 19 Nov 16:30:39 16:31:28 10° 322° (NW) 16:32:16 437.305
CUTE-I 19 Nov 16:34:28 16:39:09 32° 63° (ENE) 16:43:52 437.470
ITUPSAT 1 19 Nov 16:34:52 16:39:21 41° 293° (WNW) 16:43:48 437.325
RS-15 19 Nov 16:45:45 16:49:43 12° 90° (E) 16:53:38 29.354- 29.394
KAITUO 1B 19 Nov 16:48:07 16:51:12 26° 67° (ENE) 16:54:19 145.475/437.950
DOVE 4 19 Nov 16:51:04 16:55:56 50° 262° (W) 17:01:02 437.250
CUTE 1.7 + AOD 2 19 Nov 16:54:17 16:56:15 13° 59° (ENE) 16:58:16 437.475
XW-2D 19 Nov 16:56:43 17:00:17 45° 72° (ENE) 17:03:53 145.860 - 145.880
MOZHAYETS 4 19 Nov 17:09:49 17:12:32 16° 301° (WNW) 17:15:15
XW-2B 19 Nov 17:11:19 17:15:00 64° 75° (ENE) 17:18:45 145.730 - 145.750
CUBESAT XI-V 19 Nov 17:14:05 17:18:33 46° 290° (WNW) 17:23:02 437.345
CUBEBUG 2 19 Nov 17:26:22 17:29:30 19° 62° (ENE) 17:32:35 437.445
SEEDS 19 Nov 17:28:08 17:30:56 18° 62° (ENE) 17:33:45 437.485
NUDT-PHONESAT 19 Nov 17:35:58 17:39:37 88° 76° (ENE) 17:43:17 437.300
LilacSat-2 19 Nov 17:36:02 17:39:44 59° 259° (WSW) 17:43:29 437.200
XW-2C 19 Nov 17:36:48 17:40:30 62° 259° (W) 17:44:14 145.795 - 145.815
KKS-1 19 Nov 17:39:20 17:43:50 83° 104° (ESE) 17:48:17 437.445
AAUSAT CUBESAT 2 19 Nov 17:43:02 17:44:36 12° 58° (ENE) 17:46:10 437.432
NO-84 19 Nov 17:47:31 17:51:20 47° 339° (NNW) 17:55:23 435.350 FM
HO-68 19 Nov 17:48:27 17:55:31 64° 67° (ENE) 18:02:39 435.675
XW-2F 19 Nov 17:49:43 17:53:19 47° 261° (W) 17:56:56 145.980 - 146.000
XW-2A 19 Nov 18:00:19 18:02:15 15° 64° (ENE) 18:04:13 145.665 - 145.685
STARS 19 Nov 18:09:47 18:14:13 72° 103° (ESE) 18:18:35 437.465
CUTE-I 19 Nov 18:13:58 18:19:03 43° 262° (W) 18:24:11 437.470
YUBILEINY 19 Nov 18:21:26 18:29:18 38° 276° (W) 18:37:07 435.215
KAITUO 1B 19 Nov 18:22:01 18:25:07 26° 265° (W) 18:28:17 145.475/437.950
ZACube-1 19 Nov 18:22:54 18:26:04 20° 63° (ENE) 18:29:11 437.345
UWE-3 19 Nov 18:26:36 18:30:43 38° 69° (ENE) 18:34:45 435.000/436.395/437.385
CUTE 1.7 + AOD 2 19 Nov 18:27:18 18:31:30 78° 256° (WSW) 18:35:44 437.475
XW-2D 19 Nov 18:32:26 18:34:42 15° 269° (W) 18:37:00 145.860 - 145.880
RS-15 19 Nov 18:47:23 18:59:06 54° 113° (ESE) 19:10:44 29.354- 29.394
XW-2B 19 Nov 18:48:28 18:49:37 11° 272° (W) 18:50:46 145.730 - 145.750
STRAND 1 19 Nov 18:54:24 18:58:40 26° 93° (E) 19:02:53 437.568
CUBEBUG 2 19 Nov 19:01:10 19:05:44 59° 259° (W) 19:10:10 437.445
SEEDS 19 Nov 19:02:10 19:06:14 53° 261° (W) 19:10:21 437.485
AO-73 19 Nov 19:14:00 19:18:12 54° 72° (ENE) 19:22:21 145.935
AAUSAT CUBESAT 2 19 Nov 19:15:17 19:19:24 85° 258° (WSW) 19:23:35 437.432
KKS-1 19 Nov 19:17:27 19:19:45 14° 303° (WNW) 19:22:03 437.445
FO-29 19 Nov 19:25:32 19:31:21 22° 85° (E) 19:36:58 435.910
NO-84 19 Nov 19:25:45 19:29:24 30° 360° (N) 19:33:11 435.350 FM
XW-2A 19 Nov 19:31:32 19:34:39 39° 261° (W) 19:37:49 145.665 - 145.685
Oscar 11 19 Nov 19:32:46 19:36:59 59° 72° (ENE) 19:41:14 .
HO-68 19 Nov 19:37:37 19:43:44 29° 267° (W) 19:49:54 435.675
STARS 19 Nov 19:47:25 19:50:01 15° 301° (WNW) 19:52:35 437.465
ZACube-1 19 Nov 19:57:52 20:02:04 47° 261° (W) 20:06:12 437.345
UWE-3 19 Nov 20:03:35 20:07:16 25° 266° (W) 20:10:52 435.000/436.395/437.385
Max Valier Satellite 19 Nov 20:04:19 20:06:54 19° 65° (ENE) 20:09:30 145.860
DELFI C3 19 Nov 20:06:02 20:09:28 29° 67° (ENE) 20:12:56 145.870
EO-88 19 Nov 20:08:03 20:10:09 15° 63° (ENE) 20:12:16 145.990 - 145.960
STRAND 1 19 Nov 20:33:10 20:38:05 47° 292° (WNW) 20:42:57 437.568
AO-73 19 Nov 20:52:00 20:54:45 16° 269° (W) 20:57:29 145.935
RS-15 19 Nov 20:59:22 21:11:36 62° 319° (NW) 21:23:40 29.354- 29.394
NO-84 19 Nov 21:03:26 21:07:30 44° 20° (NNE) 21:11:37 435.350 FM
FO-29 19 Nov 21:09:22 21:17:21 90° 125° (SE) 21:24:57 435.910
Oscar 11 19 Nov 21:10:55 21:13:31 16° 270° (W) 21:16:07 .
SO-50 19 Nov 21:17:14 21:19:11 13° 109° (ESE) 21:21:08 436.795
ISS 19 Nov 21:17:54 21:19:59 16° 137° (SE) 21:22:04 437.550
UNISAT 6 19 Nov 21:25:17 21:29:00 28° 95° (E) 21:32:40 437.425
PRISM 19 Nov 21:28:15 21:28:58 10° 87° (E) 21:29:42 437.425
TIGRISAT 19 Nov 21:30:11 21:33:55 28° 95° (E) 21:37:36 435.000
O/OREOS (USA 219) 19 Nov 21:35:54 21:38:00 13° 41° (NE) 21:40:05 437.305
Max Valier Satellite 19 Nov 21:37:04 21:40:29 37° 262° (W) 21:43:55 145.860
EO-88 19 Nov 21:39:55 21:43:26 48° 261° (W) 21:46:58 145.990 - 145.960
DELFI C3 19 Nov 21:40:47 21:44:11 27° 265° (W) 21:47:38 145.870
ESTCUBE 1 19 Nov 22:02:44 22:06:47 35° 67° (ENE) 22:10:53 437.505/2401.250
LO-87 19 Nov 22:10:34 22:14:05 49° 72° (ENE) 22:17:35 145.935 - 145.965
SPROUT 19 Nov 22:10:49 22:12:33 12° 58° (ENE) 22:14:18 437.525
nSIGHT-1 19 Nov 22:15:08 22:18:15 51° 149° (SSE) 22:21:23 .
VELOX 1 19 Nov 22:33:41 22:36:10 15° 58° (ENE) 22:38:40 145.980
NO-84 19 Nov 22:40:49 22:45:00 54° 219° (SW) 22:49:09 435.350 FM
AIST 2D 19 Nov 22:46:35 22:49:23 22° 94° (E) 22:52:12 435.315
ISS 19 Nov 22:52:46 22:56:02 81° 155° (SSE) 22:59:19 437.550
SO-50 19 Nov 22:54:27 22:58:56 89° 135° (SE) 23:03:29 436.795
FO-29 19 Nov 22:55:18 23:01:24 26° 306° (NW) 23:07:25 435.910
PRISM 19 Nov 23:00:37 23:04:49 84° 288° (WNW) 23:08:59 437.425
UNISAT 6 19 Nov 23:01:54 23:05:44 32° 293° (WNW) 23:09:30 437.425
TIGRISAT 19 Nov 23:06:49 23:10:37 31° 293° (WNW) 23:14:21 435.000
DUCHIFAT 1 19 Nov 23:09:41 23:11:15 12° 88° (E) 23:12:49 145.980
EO-79 19 Nov 23:13:35 23:16:22 17° 91° (E) 23:19:07 145.935-145.965
O/OREOS (USA 219) 19 Nov 23:13:44 23:18:18 70° 62° (ENE) 23:22:49 437.305
RS-15 19 Nov 23:16:00 23:27:04 36° 350° (N) 23:37:47 29.354- 29.394
NANOSAT C BR1 19 Nov 23:18:10 23:20:55 17° 91° (E) 23:23:38 145.865
DX 1 19 Nov 23:25:53 23:27:48 13° 57° (ENE) 23:29:45 434.975-435.025
POLYITAN 1 19 Nov 23:27:53 23:31:17 23° 93° (E) 23:34:40 437.675
ESTCUBE 1 19 Nov 23:39:47 23:43:38 28° 265° (W) 23:47:31 437.505/2401.250
SPROUT 19 Nov 23:43:29 23:47:47 88° 248° (WSW) 23:52:07 437.525
LO-87 19 Nov 23:45:56 23:47:46 13° 270° (W) 23:49:35 145.935 - 145.965
QB50P2 19 Nov 23:50:37 23:54:40 44° 99° (E) 23:58:40 145.880/145.840
nSIGHT-1 19 Nov 23:51:24 23:54:32 47° 348° (NNW) 23:57:40 .
PCSat 20 Nov 00:03:27 00:07:52 26° 109° (ESE) 00:12:18 145.827
VELOX 1 20 Nov 00:07:36 00:12:02 77° 258° (WSW) 00:16:31 145.980
BUGSAT 1 20 Nov 00:09:31 00:11:20 13° 89° (E) 00:13:09 437.445
UKube-1 20 Nov 00:10:23 00:13:38 21° 62° (ENE) 00:16:53 .
AIST 2D 20 Nov 00:19:31 00:22:34 28° 291° (WNW) 00:25:36 435.315
NO-84 20 Nov 00:21:03 00:21:34 10° 237° (WSW) 00:22:04 435.350 FM
ISS 20 Nov 00:29:35 00:32:43 42° 354° (N) 00:35:51 437.550
50 SAT 20 Nov 00:30:51 00:33:59 46° 72° (ENE) 00:37:08 437.505
SO-50 20 Nov 00:36:37 00:40:01 21° 329° (NNW) 00:43:27 436.795
PRISM 20 Nov 00:38:14 00:39:23 11° 304° (WNW) 00:40:31 437.425
DUCHIFAT 1 20 Nov 00:43:15 00:47:27 74° 285° (WNW) 00:51:35 145.980
EO-79 20 Nov 00:48:21 00:52:26 51° 289° (WNW) 00:56:29 145.935-145.965
NANOSAT C BR1 20 Nov 00:52:51 00:56:55 51° 289° (WNW) 01:00:58 145.865
O/OREOS (USA 219) 20 Nov 00:54:36 00:57:08 15° 261° (W) 00:59:36 437.305
DX 1 20 Nov 00:58:56 01:03:19 89° 271° (W) 01:07:44 434.975-435.025
MOZHAYETS 4 20 Nov 01:01:43 01:04:15 15° 58° (ENE) 01:06:46
POLYITAN 1 20 Nov 01:03:18 01:07:10 36° 292° (WNW) 01:11:01 437.675
QB50P2 20 Nov 01:27:01 01:30:11 21° 297° (WNW) 01:33:19 145.880/145.840
nSIGHT-1 20 Nov 01:28:02 01:31:08 43° 9° (N) 01:34:13 .
RS-15 20 Nov 01:32:03 01:43:28 43° 24° (NNE) 01:54:19 29.354- 29.394
Oscar 19 20 Nov 01:38:36 01:43:41 56° 101° (E) 01:48:45 437.125/150
BUGSAT 1 20 Nov 01:43:07 01:47:09 65° 287° (WNW) 01:51:07 437.445
UKube-1 20 Nov 01:45:11 01:49:20 47° 260° (W) 01:53:33 .
PCSat 20 Nov 01:45:33 01:50:54 58° 309° (NW) 01:56:17 145.827
Gurwin Techsat 1B 20 Nov 01:49:28 01:54:41 51° 100° (E) 01:59:51 435.225
BEESAT 20 Nov 01:58:43 02:03:08 39° 67° (ENE) 02:07:35 436.000
50 SAT 20 Nov 02:05:13 02:06:21 11° 269° (W) 02:07:30 437.505
ISS 20 Nov 02:06:20 02:09:33 53° 14° (NNE) 02:12:45 437.550
ITUPSAT 1 20 Nov 02:07:02 02:11:35 46° 68° (ENE) 02:16:09 437.325
MOZHAYETS 4 20 Nov 02:36:14 02:40:48 80° 258° (WSW) 02:45:23
DX 1 20 Nov 02:39:31 02:40:09 10° 273° (W) 02:40:47 434.975-435.025
CUBESAT XI-V 20 Nov 02:43:36 02:47:41 32° 67° (ENE) 02:51:48 437.345
nSIGHT-1 20 Nov 03:04:19 03:07:30 66° 208° (SSW) 03:10:40 .
KKS-1 20 Nov 03:06:00 03:08:44 16° 59° (ENE) 03:11:28 437.445
BEESAT 3 20 Nov 03:07:23 03:11:07 38° 120° (ESE) 03:14:52 437.485
M-CUBED/EXP-1 PRIME 20 Nov 03:08:16 03:12:44 69° 107° (ESE) 03:17:21 437.505
Oscar 19 20 Nov 03:18:36 03:22:39 24° 299° (WNW) 03:26:41 437.125/150
AO-7 20 Nov 03:26:56 03:35:02 51° 101° (ESE) 03:43:06 .
ITAMSAT 1 20 Nov 03:27:24 03:32:12 36° 97° (E) 03:36:58 435.822/435.867
Gurwin Techsat 1B 20 Nov 03:29:57 03:34:21 27° 298° (WNW) 03:38:44 435.225
PCSat 20 Nov 03:31:58 03:35:28 17° 332° (NNW) 03:38:59 145.827
STARS 20 Nov 03:35:44 03:37:56 14° 57° (ENE) 03:40:07 437.465
BEESAT 20 Nov 03:36:55 03:41:00 28° 265° (W) 03:45:07 436.000
YUBILEINY 20 Nov 03:40:00 03:42:49 12° 68° (ENE) 03:45:37 435.215
ISS 20 Nov 03:42:54 03:46:00 41° 213° (SSW) 03:49:05 437.550
RS-15 20 Nov 03:45:29 03:57:33 90° 220° (SW) 04:08:54 29.354- 29.394
ITUPSAT 1 20 Nov 03:45:44 03:49:37 24° 267° (W) 03:53:30 437.325
SO-50 20 Nov 04:02:41 04:04:46 13° 19° (NNE) 04:06:53 436.795
AO-85 20 Nov 04:12:49 04:15:51 22° 114° (ESE) 04:18:59 145.980
BEESAT 2 20 Nov 04:14:27 04:18:24 56° 122° (ESE) 04:22:23 435.950
CUBESAT XI-V 20 Nov 04:20:56 04:25:01 32° 265° (W) 04:29:10 437.345
KKS-1 20 Nov 04:40:17 04:44:45 71° 257° (WSW) 04:49:16 437.445
nSIGHT-1 20 Nov 04:41:52 04:43:13 12° 225° (SW) 04:44:34 .
M-CUBED/EXP-1 PRIME 20 Nov 04:43:37 04:46:41 19° 305° (NW) 04:49:49 437.505
BEESAT 3 20 Nov 04:45:11 04:48:44 30° 319° (NW) 04:52:18 437.485
DOVE 4 20 Nov 04:46:25 04:51:21 40° 96° (E) 04:56:05 437.250
ITAMSAT 1 20 Nov 05:06:55 05:11:39 35° 295° (WNW) 05:16:20 435.822/435.867
LilacSat-2 20 Nov 05:07:22 05:08:48 12° 89° (E) 05:10:13 437.200
XW-2C 20 Nov 05:07:51 05:08:51 11° 88° (E) 05:09:50 145.795 - 145.815
STARS 20 Nov 05:09:11 05:13:37 85° 253° (WSW) 05:18:06 437.465
XW-2F 20 Nov 05:19:13 05:21:13 14° 90° (E) 05:23:12 145.980 - 146.000
AO-7 20 Nov 05:19:57 05:27:44 46° 302° (WNW) 05:35:32 .
YUBILEINY 20 Nov 05:29:03 05:37:31 58° 91° (E) 05:46:05 435.215
SO-50 20 Nov 05:42:14 05:46:32 37° 42° (NE) 05:50:52 436.795
FO-29 20 Nov 05:43:19 05:47:16 16° 46° (NE) 05:51:25 435.910
KAITUO 1B 20 Nov 05:49:07 05:52:09 23° 94° (E) 05:55:10 145.475/437.950
AO-85 20 Nov 05:52:09 05:55:57 45° 315° (NW) 05:59:57 145.980
BEESAT 2 20 Nov 05:53:06 05:56:24 24° 323° (NW) 05:59:45 435.950
RS-15 20 Nov 05:59:09 06:08:23 28° 258° (WSW) 06:17:17 29.354- 29.394
XW-2D 20 Nov 05:59:29 06:03:06 41° 98° (E) 06:06:44 145.860 - 145.880
CUTE 1.7 + AOD 2 20 Nov 06:09:47 06:12:13 15° 89° (E) 06:14:39 437.475
STRAND 1 20 Nov 06:13:17 06:18:16 52° 69° (ENE) 06:23:17 437.568
XW-2B 20 Nov 06:14:10 06:17:56 59° 101° (E) 06:21:42 145.730 - 145.750
DOVE 4 20 Nov 06:24:15 06:28:54 32° 295° (WNW) 06:33:22 437.250
CUTE-I 20 Nov 06:27:00 06:32:20 59° 101° (E) 06:37:37 437.470
NUDT-PHONESAT 20 Nov 06:36:04 06:39:47 75° 102° (ESE) 06:43:30 437.300
LilacSat-2 20 Nov 06:39:40 06:43:29 64° 286° (WNW) 06:47:17 437.200
XW-2C 20 Nov 06:39:41 06:43:28 69° 286° (WNW) 06:47:15 145.795 - 145.815
SEEDS 20 Nov 06:42:49 06:45:59 20° 92° (E) 06:49:08 437.485
CUBEBUG 2 20 Nov 06:49:05 06:52:19 21° 92° (E) 06:55:29 437.445
XW-2F 20 Nov 06:51:56 06:55:38 53° 287° (WNW) 06:59:20 145.980 - 146.000
AAUSAT CUBESAT 2 20 Nov 06:55:31 06:57:16 12° 88° (E) 06:58:59 437.432
HO-68 20 Nov 06:59:53 07:06:51 49° 100° (E) 07:13:44 435.675
PCSat 20 Nov 07:04:07 07:07:14 15° 25° (NNE) 07:10:20 145.827
AO-7 20 Nov 07:14:28 07:18:29 15° 326° (NW) 07:22:30 .
SO-50 20 Nov 07:22:43 07:27:02 39° 241° (WSW) 07:31:23 436.795
KAITUO 1B 20 Nov 07:22:49 07:26:09 31° 291° (WNW) 07:29:30 145.475/437.950
FO-29 20 Nov 07:24:10 07:30:43 60° 68° (ENE) 07:38:05 435.910
YUBILEINY 20 Nov 07:26:45 07:34:45 38° 293° (WNW) 07:42:50 435.215
XW-2D 20 Nov 07:34:20 07:37:00 18° 296° (WNW) 07:39:40 145.860 - 145.880
AO-85 20 Nov 07:35:38 07:37:27 13° 338° (NNW) 07:39:19 145.980
ZACube-1 20 Nov 07:42:45 07:46:08 24° 94° (E) 07:49:31 437.345
CUTE 1.7 + AOD 2 20 Nov 07:44:14 07:48:27 62° 287° (WNW) 07:52:40 437.475
UWE-3 20 Nov 07:48:36 07:52:39 50° 99° (E) 07:56:40 435.000/436.395/437.385
XW-2B 20 Nov 07:49:39 07:51:40 14° 298° (WNW) 07:53:40 145.730 - 145.750
STRAND 1 20 Nov 07:53:37 07:57:44 24° 267° (W) 08:01:52 437.568
CUTE-I 20 Nov 08:07:46 08:12:00 24° 300° (WNW) 08:16:13 437.470
NUDT-PHONESAT 20 Nov 08:12:02 08:13:04 11° 300° (WNW) 08:14:08 437.300
SEEDS 20 Nov 08:17:49 08:21:52 44° 290° (WNW) 08:25:54 437.485
PRISM 20 Nov 08:20:00 08:22:00 13° 58° (ENE) 08:24:02 437.425
XW-2A 20 Nov 08:21:47 08:25:07 63° 286° (WNW) 08:28:27 145.665 - 145.685
CUBEBUG 2 20 Nov 08:25:10 08:29:07 39° 291° (WNW) 08:32:58 437.445
UNISAT 6 20 Nov 08:26:49 08:31:03 39° 69° (ENE) 08:35:13 437.425
AAUSAT CUBESAT 2 20 Nov 08:29:00 08:33:12 72° 285° (WNW) 08:37:21 437.432
TIGRISAT 20 Nov 08:31:34 08:35:49 39° 69° (ENE) 08:40:00 435.000
AO-73 20 Nov 08:34:13 08:38:22 73° 103° (ESE) 08:42:30 145.935
PCSat 20 Nov 08:46:44 08:52:01 47° 48° (NE) 08:57:14 145.827
HO-68 20 Nov 08:47:52 08:54:28 41° 300° (WNW) 09:01:02 435.675
Oscar 11 20 Nov 08:52:15 08:56:36 77° 102° (ESE) 09:00:56 .
Max Valier Satellite 20 Nov 09:04:04 09:06:14 15° 91° (E) 09:08:25 145.860
EO-88 20 Nov 09:06:41 09:07:51 11° 89° (E) 09:09:02 145.990 - 145.960
FO-29 20 Nov 09:10:24 09:16:14 31° 270° (W) 09:22:41 435.910
DELFI C3 20 Nov 09:13:33 09:17:03 28° 95° (E) 09:20:32 145.870
ZACube-1 20 Nov 09:18:44 09:22:30 35° 291° (WNW) 09:26:17 437.345
AIST 2D 20 Nov 09:24:43 09:26:42 15° 63° (ENE) 09:28:40 435.315
UWE-3 20 Nov 09:25:55 09:28:46 18° 298° (WNW) 09:31:36 435.000/436.395/437.385
BEESAT 3 20 Nov 09:43:57 09:46:19 15° 30° (NNE) 09:48:40 437.485
PRISM 20 Nov 09:52:35 09:56:42 76° 257° (WSW) 10:00:53 437.425
UNISAT 6 20 Nov 10:04:03 10:07:51 26° 266° (W) 10:11:38 437.425
DUCHIFAT 1 20 Nov 10:04:18 10:06:46 15° 60° (ENE) 10:09:14 145.980
TIGRISAT 20 Nov 10:08:50 10:12:37 25° 266° (W) 10:16:21 435.000
EO-79 20 Nov 10:09:00 10:12:12 21° 63° (ENE) 10:15:23 145.935-145.965
AO-73 20 Nov 10:12:03 10:14:04 13° 300° (WNW) 10:16:05 145.935
NANOSAT C BR1 20 Nov 10:13:14 10:16:23 21° 63° (ENE) 10:19:32 145.865
POLYITAN 1 20 Nov 10:23:24 10:27:01 28° 66° (ENE) 10:30:39 437.675
Oscar 11 20 Nov 10:29:56 10:32:10 14° 301° (WNW) 10:34:23 .
PCSat 20 Nov 10:30:27 10:35:15 33° 248° (WSW) 10:40:02 145.827
Max Valier Satellite 20 Nov 10:36:47 10:40:18 44° 288° (WNW) 10:43:48 145.860
EO-88 20 Nov 10:38:16 10:41:53 61° 287° (WNW) 10:45:29 145.990 - 145.960
HO-68 20 Nov 10:38:47 10:40:19 11° 322° (NW) 10:41:50 435.675
